Location: Unspecified
(42.1900°N, 71.3291°W)
Time: 12:58:00
(UTC-04:00)

Cosmos 2058 - Visible Passes

Search period start: 22 September 2017 00:00
Search period end: 02 October 2017 00:00
Orbit: 564 x 585 km, 82.5° (Epoch: 22 September)

Date Brightness Start Highest point End Pass type
(mag) Time Alt. Az. Time Alt. Az. Time Alt. Az.
26 Sep 5.9 21:43:12 10° N 21:43:16 10° N 21:43:16 10° N visible
27 Sep 5.9 21:46:31 10° N 21:46:40 11° N 21:46:40 11° N visible
28 Sep 6.0 21:49:52 10° NNW 21:50:04 11° NNW 21:50:04 11° NNW visible
29 Sep 6.0 21:53:17 10° NNW 21:53:30 11° NNW 21:53:30 11° NNW visible
30 Sep 5.3 20:20:22 10° NNE 20:20:42 11° NNE 20:20:42 11° NNE visible
30 Sep 6.1 21:56:46 10° NNW 21:56:57 11° NNW 21:56:57 11° NNW visible
01 Oct 5.2 20:23:22 10° NNE 20:24:11 14° NNE 20:24:11 14° NNE visible
01 Oct 6.2 22:00:20 10° NW 22:00:25 10° NW 22:00:25 10° NW visible
